N926 LICP-LIEE

Flight info

Callsign N926
Flight time 1h 5m
Altitude 12000
Route DCT
Aircraft PC12/L-VGD/A

Departure

Time 2026-05-07 14:58
Airport Palermo-Boccadifalco Airport (LICP)

Arrival

Time 2026-05-07 16:03
Airport Cagliari Elmas Airport (LIEE)
Time Latitude Longitude Altitude Speed Heading
2026-05-07 14:43 38.10993 13.31114 386 ft 0 kts 263°
2026-05-07 14:47 38.10996 13.31144 384 ft 3 kts 263°
2026-05-07 14:47 38.10998 13.31163 381 ft 3 kts 263°
2026-05-07 14:47 38.10998 13.31166 381 ft 0 kts 263°
2026-05-07 14:55 38.10998 13.31161 381 ft 2 kts 282°
2026-05-07 14:55 38.11000 13.31157 381 ft 0 kts 308°
2026-05-07 14:55 38.11007 13.31151 382 ft 4 kts 354°
2026-05-07 14:55 38.11039 13.31213 377 ft 11 kts 61°
2026-05-07 14:56 38.11030 13.31300 383 ft 9 kts 105°
2026-05-07 14:56 38.11016 13.31362 389 ft 7 kts 106°
2026-05-07 14:56 38.11009 13.31415 391 ft 6 kts 63°
2026-05-07 14:56 38.11054 13.31421 386 ft 0 kts 354°
2026-05-07 14:57 38.11056 13.31420 386 ft 0 kts 354°
2026-05-07 14:57 38.11138 13.31409 378 ft 38 kts 352°
2026-05-07 14:57 38.11596 13.31339 344 ft 90 kts 353°
2026-05-07 14:58 38.12271 13.31245 536 ft 97 kts 355°
2026-05-07 14:58 38.12954 13.31246 828 ft 100 kts 12°
2026-05-07 14:58 38.13675 13.31400 1044 ft 116 kts 11°
2026-05-07 14:58 38.14526 13.31537 1310 ft 130 kts 11°
2026-05-07 14:59 38.15466 13.31693 1574 ft 143 kts
2026-05-07 14:59 38.16534 13.31699 1826 ft 162 kts 358°
2026-05-07 14:59 38.17680 13.31328 2084 ft 179 kts 335°
2026-05-07 14:59 38.18784 13.30485 2342 ft 190 kts 328°
2026-05-07 15:00 38.19931 13.29557 2598 ft 201 kts 328°
2026-05-07 15:00 38.21107 13.28617 2858 ft 215 kts 328°
2026-05-07 15:00 38.22411 13.27573 3087 ft 216 kts 328°
2026-05-07 15:00 38.23687 13.26560 3329 ft 216 kts 329°
2026-05-07 15:01 38.24965 13.25546 3580 ft 217 kts 329°
2026-05-07 15:01 38.26244 13.24528 3830 ft 217 kts 328°
2026-05-07 15:01 38.27527 13.23507 4079 ft 218 kts 329°
2026-05-07 15:01 38.28689 13.22581 4304 ft 219 kts 329°
2026-05-07 15:02 38.29981 13.21550 4556 ft 220 kts 329°
2026-05-07 15:02 38.31277 13.20513 4808 ft 221 kts 328°
2026-05-07 15:02 38.32554 13.19474 5050 ft 220 kts 325°
2026-05-07 15:02 38.33502 13.17976 5298 ft 218 kts 296°
2026-05-07 15:03 38.34123 13.16213 5551 ft 219 kts 292°
2026-05-07 15:03 38.34719 13.14419 5807 ft 221 kts 291°
2026-05-07 15:03 38.35320 13.12611 6051 ft 223 kts 291°
2026-05-07 15:03 38.35928 13.10789 6301 ft 224 kts 291°
2026-05-07 15:04 38.36539 13.08959 6553 ft 225 kts 291°
2026-05-07 15:04 38.37150 13.07121 6803 ft 226 kts 291°
2026-05-07 15:04 38.37762 13.05279 7052 ft 226 kts 291°
2026-05-07 15:04 38.38365 13.03459 7299 ft 226 kts 291°
2026-05-07 15:05 38.38974 13.01612 7550 ft 226 kts 291°
2026-05-07 15:05 38.39584 12.99763 7800 ft 226 kts 291°
2026-05-07 15:05 38.40194 12.97912 8048 ft 227 kts 291°
2026-05-07 15:05 38.40803 12.96058 8298 ft 227 kts 291°
2026-05-07 15:06 38.41410 12.94203 8546 ft 227 kts 291°
2026-05-07 15:06 38.42017 12.92344 8800 ft 227 kts 291°
2026-05-07 15:06 38.42621 12.90480 9049 ft 228 kts 291°
2026-05-07 15:06 38.43225 12.88617 9299 ft 227 kts 291°
2026-05-07 15:07 38.43821 12.86781 9546 ft 227 kts 291°
2026-05-07 15:07 38.44427 12.84929 9799 ft 226 kts 291°
2026-05-07 15:07 38.45044 12.83059 9872 ft 233 kts 291°
2026-05-07 15:07 38.45687 12.81132 9961 ft 236 kts 292°
2026-05-07 15:08 38.46328 12.79212 10212 ft 235 kts 291°
2026-05-07 15:08 38.46970 12.77298 10462 ft 234 kts 291°
2026-05-07 15:08 38.47615 12.75394 10713 ft 233 kts 291°
2026-05-07 15:08 38.48255 12.73526 10960 ft 232 kts 291°
2026-05-07 15:09 38.48907 12.71644 11212 ft 231 kts 291°
2026-05-07 15:09 38.49563 12.69774 11459 ft 230 kts 291°
2026-05-07 15:09 38.50224 12.67917 11710 ft 229 kts 291°
2026-05-07 15:09 38.50893 12.66066 11874 ft 232 kts 291°
2026-05-07 15:10 38.51586 12.64165 11876 ft 239 kts 292°
2026-05-07 15:10 38.52283 12.62225 11877 ft 242 kts 292°
2026-05-07 15:10 38.52965 12.60289 11879 ft 243 kts 291°
2026-05-07 15:10 38.53659 12.58312 11879 ft 244 kts 291°
2026-05-07 15:11 38.54354 12.56331 11879 ft 245 kts 291°
2026-05-07 15:11 38.55052 12.54343 11879 ft 245 kts 291°
2026-05-07 15:11 38.55750 12.52352 11879 ft 246 kts 291°
2026-05-07 15:11 38.56448 12.50359 11879 ft 246 kts 291°
2026-05-07 15:12 38.57145 12.48364 11879 ft 246 kts 291°
2026-05-07 15:12 38.57841 12.46368 11885 ft 246 kts 291°
2026-05-07 15:12 38.58528 12.44400 11898 ft 245 kts 291°
2026-05-07 15:12 38.59223 12.42407 11898 ft 246 kts 291°
2026-05-07 15:13 38.59919 12.40412 11898 ft 246 kts 291°
2026-05-07 15:13 38.60614 12.38415 11898 ft 246 kts 291°
2026-05-07 15:13 38.61309 12.36417 11898 ft 246 kts 291°
2026-05-07 15:13 38.62005 12.34419 11898 ft 246 kts 291°
2026-05-07 15:14 38.62701 12.32420 11899 ft 246 kts 291°
2026-05-07 15:14 38.63397 12.30419 11903 ft 246 kts 291°
2026-05-07 15:14 38.64083 12.28445 11899 ft 246 kts 291°
2026-05-07 15:14 38.64778 12.26444 11899 ft 246 kts 291°
2026-05-07 15:15 38.65472 12.24443 11902 ft 246 kts 291°
2026-05-07 15:15 38.66165 12.22441 11899 ft 246 kts 291°
2026-05-07 15:15 38.66857 12.20442 11899 ft 246 kts 291°
2026-05-07 15:15 38.67550 12.18440 11899 ft 246 kts 291°
2026-05-07 15:16 38.68244 12.16439 11899 ft 246 kts 291°
2026-05-07 15:16 38.68939 12.14437 11899 ft 246 kts 291°
2026-05-07 15:16 38.69633 12.12435 11899 ft 246 kts 291°
2026-05-07 15:16 38.70318 12.10457 11899 ft 246 kts 291°
2026-05-07 15:17 38.71011 12.08455 11899 ft 246 kts 291°
2026-05-07 15:17 38.71703 12.06447 11899 ft 247 kts 291°
2026-05-07 15:17 38.72395 12.04439 11899 ft 247 kts 291°
2026-05-07 15:17 38.73085 12.02430 11899 ft 246 kts 291°
2026-05-07 15:18 38.73775 12.00422 11906 ft 247 kts 291°
2026-05-07 15:18 38.74467 11.98410 11899 ft 247 kts 291°
2026-05-07 15:18 38.75148 11.96423 11902 ft 247 kts 291°
2026-05-07 15:18 38.75836 11.94413 11899 ft 246 kts 291°
2026-05-07 15:19 38.76523 11.92403 11899 ft 246 kts 291°
2026-05-07 15:19 38.77209 11.90389 11899 ft 248 kts 291°
2026-05-07 15:19 38.77896 11.88363 11899 ft 248 kts 291°
2026-05-07 15:19 38.78582 11.86337 11899 ft 247 kts 291°
2026-05-07 15:20 38.79269 11.84316 11901 ft 248 kts 291°
2026-05-07 15:20 38.79957 11.82293 11906 ft 247 kts 291°
2026-05-07 15:20 38.80635 11.80300 11906 ft 248 kts 291°
2026-05-07 15:20 38.81321 11.78274 11908 ft 247 kts 291°
2026-05-07 15:21 38.82005 11.76247 11906 ft 248 kts 291°
2026-05-07 15:21 38.82690 11.74218 11906 ft 248 kts 291°
2026-05-07 15:21 38.83377 11.72185 11907 ft 248 kts 291°
2026-05-07 15:21 38.84064 11.70153 11909 ft 248 kts 291°
2026-05-07 15:22 38.84750 11.68119 11909 ft 249 kts 291°
2026-05-07 15:22 38.85434 11.66080 11912 ft 249 kts 291°
2026-05-07 15:22 38.86107 11.64069 11909 ft 249 kts 291°
2026-05-07 15:22 38.86789 11.62027 11907 ft 249 kts 291°
2026-05-07 15:23 38.87475 11.59978 11907 ft 249 kts 291°
2026-05-07 15:23 38.88163 11.57939 11913 ft 249 kts 291°
2026-05-07 15:23 38.88851 11.55892 11906 ft 249 kts 291°
2026-05-07 15:23 38.89537 11.53844 11909 ft 251 kts 291°
2026-05-07 15:24 38.90225 11.51793 11909 ft 250 kts 291°
2026-05-07 15:24 38.90914 11.49745 11907 ft 251 kts 291°
2026-05-07 15:24 38.91595 11.47711 11907 ft 251 kts 291°
2026-05-07 15:24 38.92281 11.45654 11909 ft 250 kts 291°
2026-05-07 15:25 38.92966 11.43599 11907 ft 250 kts 291°
2026-05-07 15:25 38.93650 11.41542 11908 ft 251 kts 291°
2026-05-07 15:25 38.94333 11.39476 11907 ft 251 kts 291°
2026-05-07 15:25 38.95015 11.37413 11918 ft 251 kts 291°
2026-05-07 15:26 38.95698 11.35345 11918 ft 252 kts 291°
2026-05-07 15:26 38.96382 11.33276 11918 ft 252 kts 291°
2026-05-07 15:26 38.97057 11.31234 11918 ft 252 kts 291°
2026-05-07 15:26 38.97741 11.29164 11918 ft 252 kts 291°
2026-05-07 15:27 38.98426 11.27096 11918 ft 252 kts 291°
2026-05-07 15:27 38.99111 11.25024 11918 ft 252 kts 291°
2026-05-07 15:27 38.99795 11.22954 11918 ft 252 kts 291°
2026-05-07 15:27 39.00481 11.20881 11918 ft 252 kts 291°
2026-05-07 15:28 39.01163 11.18810 11918 ft 252 kts 291°
2026-05-07 15:28 39.01849 11.16734 11918 ft 252 kts 291°
2026-05-07 15:28 39.02529 11.14684 11918 ft 253 kts 291°
2026-05-07 15:28 39.03219 11.12607 11918 ft 253 kts 291°
2026-05-07 15:29 39.03909 11.10527 11918 ft 253 kts 291°
2026-05-07 15:29 39.04599 11.08447 11918 ft 253 kts 291°
2026-05-07 15:29 39.05290 11.06367 11918 ft 253 kts 291°
2026-05-07 15:29 39.05980 11.04288 11918 ft 253 kts 291°
2026-05-07 15:30 39.06669 11.02209 11918 ft 253 kts 291°
2026-05-07 15:30 39.07350 11.00158 11918 ft 253 kts 291°
2026-05-07 15:30 39.08036 10.98081 11917 ft 251 kts 291°
2026-05-07 15:30 39.08718 10.96016 11917 ft 250 kts 291°
2026-05-07 15:31 39.09398 10.93953 11917 ft 251 kts 291°
2026-05-07 15:31 39.10084 10.91882 11918 ft 252 kts 291°
2026-05-07 15:31 39.10774 10.89798 11927 ft 253 kts 291°
2026-05-07 15:31 39.11464 10.87716 11927 ft 253 kts 291°
2026-05-07 15:32 39.12157 10.85630 11927 ft 254 kts 291°
2026-05-07 15:32 39.12836 10.83573 11927 ft 253 kts 291°
2026-05-07 15:32 39.13523 10.81482 11927 ft 254 kts 291°
2026-05-07 15:32 39.14209 10.79398 11927 ft 252 kts 291°
2026-05-07 15:33 39.14894 10.77317 11927 ft 252 kts 291°
2026-05-07 15:33 39.15582 10.75237 11927 ft 252 kts 291°
2026-05-07 15:33 39.16272 10.73155 11927 ft 253 kts 291°
2026-05-07 15:33 39.16963 10.71071 11927 ft 253 kts 291°
2026-05-07 15:34 39.17655 10.68988 11927 ft 253 kts 291°
2026-05-07 15:34 39.18338 10.66928 11928 ft 253 kts 291°
2026-05-07 15:34 39.19030 10.64841 11927 ft 253 kts 291°
2026-05-07 15:34 39.19723 10.62752 11927 ft 253 kts 291°
2026-05-07 15:35 39.20415 10.60666 11927 ft 252 kts 291°
2026-05-07 15:35 39.21105 10.58579 11927 ft 253 kts 291°
2026-05-07 15:35 39.21794 10.56489 11927 ft 253 kts 291°
2026-05-07 15:35 39.22480 10.54393 11927 ft 254 kts 291°
2026-05-07 15:36 39.23154 10.52323 11927 ft 254 kts 291°
2026-05-07 15:36 39.23839 10.50223 11927 ft 254 kts 291°
2026-05-07 15:36 39.24523 10.48121 11927 ft 254 kts 291°
2026-05-07 15:36 39.25208 10.46019 11927 ft 254 kts 291°
2026-05-07 15:37 39.25894 10.43916 11927 ft 254 kts 291°
2026-05-07 15:37 39.26579 10.41813 11927 ft 254 kts 291°
2026-05-07 15:37 39.27266 10.39707 11930 ft 255 kts 291°
2026-05-07 15:37 39.27954 10.37595 11930 ft 256 kts 291°
2026-05-07 15:38 39.28634 10.35511 11929 ft 256 kts 291°
2026-05-07 15:38 39.29326 10.33394 11928 ft 256 kts 291°
2026-05-07 15:38 39.30017 10.31278 11927 ft 256 kts 291°
2026-05-07 15:38 39.30542 10.29113 11927 ft 252 kts 276°
2026-05-07 15:39 39.30614 10.26867 11930 ft 250 kts 268°
2026-05-07 15:39 39.30578 10.24616 11913 ft 252 kts 267°
2026-05-07 15:39 39.30520 10.22331 11736 ft 257 kts 266°
2026-05-07 15:39 39.30358 10.20023 11561 ft 260 kts 263°
2026-05-07 15:40 39.30146 10.17702 11386 ft 261 kts 262°
2026-05-07 15:40 39.29932 10.15410 11213 ft 261 kts 262°
2026-05-07 15:40 39.29713 10.13078 11039 ft 262 kts 262°
2026-05-07 15:40 39.29494 10.10739 10863 ft 263 kts 262°
2026-05-07 15:41 39.29275 10.08397 10687 ft 263 kts 262°
2026-05-07 15:41 39.29054 10.06050 10512 ft 264 kts 262°
2026-05-07 15:41 39.28836 10.03701 10337 ft 263 kts 262°
2026-05-07 15:41 39.28619 10.01349 10163 ft 264 kts 262°
2026-05-07 15:42 39.28401 9.98989 9986 ft 265 kts 262°
2026-05-07 15:42 39.28183 9.96621 9813 ft 266 kts 262°
2026-05-07 15:42 39.27966 9.94281 9638 ft 267 kts 262°
2026-05-07 15:42 39.27745 9.91901 9463 ft 267 kts 262°
2026-05-07 15:43 39.27523 9.89515 9288 ft 268 kts 262°
2026-05-07 15:43 39.27300 9.87125 9113 ft 268 kts 262°
2026-05-07 15:43 39.27075 9.84732 8937 ft 269 kts 262°
2026-05-07 15:43 39.26848 9.82332 8766 ft 270 kts 262°
2026-05-07 15:44 39.26622 9.79927 8587 ft 270 kts 262°
2026-05-07 15:44 39.26395 9.77523 8412 ft 270 kts 262°
2026-05-07 15:44 39.26172 9.75155 8239 ft 270 kts 262°
2026-05-07 15:44 39.25944 9.72754 8064 ft 269 kts 262°
2026-05-07 15:45 39.25719 9.70359 7888 ft 268 kts 262°
2026-05-07 15:45 39.25496 9.67978 7714 ft 267 kts 262°
2026-05-07 15:45 39.25273 9.65606 7539 ft 266 kts 262°
2026-05-07 15:45 39.25050 9.63248 7363 ft 264 kts 262°
2026-05-07 15:46 39.24608 9.58557 7014 ft 261 kts 262°
2026-05-07 15:46 39.24393 9.56275 6839 ft 258 kts 262°
2026-05-07 15:46 39.24177 9.53989 6664 ft 256 kts 262°
2026-05-07 15:47 39.23964 9.51721 6488 ft 254 kts 262°
2026-05-07 15:47 39.23751 9.49462 6316 ft 254 kts 262°
2026-05-07 15:47 39.23539 9.47205 6137 ft 253 kts 262°
2026-05-07 15:47 39.23330 9.44961 5961 ft 251 kts 262°
2026-05-07 15:48 39.23119 9.42726 5788 ft 250 kts 262°
2026-05-07 15:48 39.22901 9.40509 5654 ft 246 kts 262°
2026-05-07 15:48 39.22692 9.38381 5652 ft 233 kts 262°
2026-05-07 15:48 39.22499 9.36372 5650 ft 225 kts 262°
2026-05-07 15:49 39.22310 9.34394 5636 ft 219 kts 262°
2026-05-07 15:49 39.22125 9.32471 5643 ft 213 kts 262°
2026-05-07 15:49 39.21943 9.30589 5641 ft 210 kts 262°
2026-05-07 15:49 39.21767 9.28736 5640 ft 207 kts 262°
2026-05-07 15:50 39.21593 9.26895 5643 ft 207 kts 262°
2026-05-07 15:50 39.21422 9.25092 5636 ft 204 kts 262°
2026-05-07 15:50 39.21254 9.23293 5635 ft 201 kts 262°
2026-05-07 15:50 39.21087 9.21513 5635 ft 199 kts 262°
2026-05-07 15:51 39.20921 9.19753 5636 ft 197 kts 262°
2026-05-07 15:51 39.20756 9.18007 5636 ft 196 kts 262°
2026-05-07 15:51 39.20591 9.16269 5640 ft 195 kts 262°
2026-05-07 15:51 39.20635 9.14554 5636 ft 194 kts 290°
2026-05-07 15:52 39.21504 9.13274 5639 ft 191 kts 330°
2026-05-07 15:52 39.22665 9.12515 5649 ft 190 kts 335°
2026-05-07 15:52 39.23853 9.11756 5646 ft 190 kts 335°
2026-05-07 15:52 39.25044 9.10992 5646 ft 192 kts 335°
2026-05-07 15:53 39.26268 9.10209 5469 ft 200 kts 335°
2026-05-07 15:53 39.27530 9.09408 5296 ft 202 kts 335°
2026-05-07 15:53 39.28774 9.08622 5118 ft 191 kts 335°
2026-05-07 15:53 39.29915 9.07898 4936 ft 175 kts 335°
2026-05-07 15:54 39.30940 9.07243 4767 ft 155 kts 335°
2026-05-07 15:54 39.31838 9.06661 4583 ft 136 kts 335°
2026-05-07 15:54 39.32653 9.06132 4401 ft 127 kts 335°
2026-05-07 15:54 39.33435 9.05622 4223 ft 125 kts 335°
2026-05-07 15:55 39.34211 9.05117 4050 ft 124 kts 335°
2026-05-07 15:55 39.34983 9.04611 3877 ft 125 kts 335°
2026-05-07 15:55 39.35754 9.04103 3700 ft 124 kts 335°
2026-05-07 15:55 39.36518 9.03602 3526 ft 122 kts 335°
2026-05-07 15:56 39.37270 9.03114 3350 ft 122 kts 335°
2026-05-07 15:56 39.38026 9.02625 3174 ft 121 kts 335°
2026-05-07 15:56 39.38777 9.02137 3000 ft 120 kts 335°
2026-05-07 15:56 39.39492 9.01669 2981 ft 110 kts 335°
2026-05-07 15:57 39.40147 9.01236 2972 ft 102 kts 335°
2026-05-07 15:57 39.40809 9.00798 2981 ft 113 kts 335°
2026-05-07 15:57 39.41475 9.00235 2981 ft 120 kts 305°
2026-05-07 15:57 39.41480 8.99201 2987 ft 122 kts 238°
2026-05-07 15:58 39.40988 8.98322 2987 ft 124 kts 232°
2026-05-07 15:58 39.40297 8.97770 2987 ft 120 kts 181°
2026-05-07 15:58 39.39462 8.97770 2987 ft 121 kts 178°
2026-05-07 15:58 39.38611 8.97771 2987 ft 123 kts 178°
2026-05-07 15:59 39.37755 8.97773 2986 ft 124 kts 178°
2026-05-07 15:59 39.36892 8.97774 2973 ft 125 kts 178°
2026-05-07 15:59 39.36011 8.97777 2889 ft 132 kts 178°
2026-05-07 15:59 39.35068 8.97779 2745 ft 139 kts 178°
2026-05-07 16:00 39.34110 8.97777 2617 ft 138 kts 178°
2026-05-07 16:00 39.33207 8.98008 2486 ft 130 kts 152°
2026-05-07 16:00 39.32400 8.98548 2315 ft 130 kts 151°
2026-05-07 16:00 39.31641 8.99057 2142 ft 116 kts 151°
2026-05-07 16:01 39.30955 8.99515 1961 ft 107 kts 151°
2026-05-07 16:01 39.30307 8.99945 1783 ft 102 kts 151°
2026-05-07 16:01 39.29689 9.00382 1583 ft 101 kts 144°
2026-05-07 16:01 39.29131 9.00937 1380 ft 101 kts 140°
2026-05-07 16:02 39.28581 9.01482 1177 ft 102 kts 139°
2026-05-07 16:02 39.28035 9.02069 945 ft 103 kts 136°
2026-05-07 16:02 39.27500 9.02699 661 ft 104 kts 135°
2026-05-07 16:02 39.26963 9.03324 401 ft 105 kts 135°
2026-05-07 16:03 39.26431 9.03941 203 ft 101 kts 135°
2026-05-07 16:03 39.25969 9.04487 36 ft 92 kts 136°
2026-05-07 16:03 39.25544 9.04986 15 ft 74 kts 138°
2026-05-07 16:03 39.25326 9.05233 12 ft 10 kts 140°
2026-05-07 16:04 39.25327 9.05333 13 ft 16 kts 49°
2026-05-07 16:04 39.25372 9.05398 14 ft 0 kts 47°